Regional Weather Roundup
Issued by NWS State College, PA

Home | Current Version | Previous Version | Text Only | Print | Product List | Glossary On
Versions: 1 2 3 4 5 6 7 8 9 10 11 12 13 14 15 16 17 18 19 20 21 22 23 24 25 26 27 28 29 30 31 32 33 34 35 36 37 38 39 40 41 42 43 44 45 46 47 48 49 50
000
ASUS41 KCTP 300403
RWRCTP

REGIONAL WEATHER ROUNDUP
NATIONAL WEATHER SERVICE STATE COLLEGE PA
1200 AM EDT WED JUL 30 2014

Note: "fair" indicates few or no clouds below 12,000 feet with no
significant weather and/or obstructions to visibility.

* = STATION THAT DOES NOT REPORT PRECIPITATION /E.G. RAIN...SNOW...ETC/
    THUNDER OR FOG.

PAZ002>004-007>009-013>016-020>023-029>032-300500-
WESTERN PENNSYLVANIA

CITY           SKY/WX    TMP DP  RH WIND       PRES   REMARKS
ERIE           CLOUDY    62  51  67 S7        29.98F
MEADVILLE      PTCLDY    57  51  80 CALM      30.02F
FRANKLIN*      CLEAR     52  48  87 SW5       30.04F
NEW CASTLE       N/A     53  51  93 CALM      30.04F
BEAVER COUNTY  NOT AVBL
BUTLER*        CLEAR     54  48  82 CALM      30.05F
PITTSBURGH INT CLEAR     57  52  83 CALM      30.04S
PITTSBURGH     CLEAR     59  49  69 SW5       30.04S
INDIANA*       MOCLDY    55  54  94 CALM      30.08F
LATROBE        CLEAR     54  54 100 CALM      30.06S
WASHINGTON CO* CLEAR     50  48  93 CALM      30.06S VSB 1
$$

PAZ004>006-010>012-017>019-024>028-033>037-041-042-045-046-049>053-300500-
CENTRAL PENNSYLVANIA

CITY           SKY/WX    TMP DP  RH WIND       PRES   REMARKS
BRADFORD       CLEAR     47  45  93 CALM      30.04R FOG
DUBOIS         CLEAR     54  51  90 SW3       30.03S
CLEARFIELD     CLEAR     55  52  89 SW3       30.04S
JOHNSTOWN      CLEAR     54  48  80 SW6       30.06S
ALTOONA        CLEAR     54  51  90 S6        30.06S
STATE COLLEGE  PTCLDY    56  53  87 CALM      30.03S
WILLIAMSPORT   CLOUDY    61  54  77 NW3       30.00S
SELINSGROVE    CLOUDY    58  56  93 CALM      30.02S
FT INDIANTOWN  CLEAR     56  55  99 NE1       30.02R
CAPITAL CITY   CLEAR     58  53  84 CALM      30.02R
HARRISBURG     PTCLDY    62  53  72 N3        30.01S
YORK           PTCLDY    53  51  93 CALM      30.02S
$$

PAZ038>040-043-044-047-048-054-055-060>062-067>071-300500-
EASTERN PENNSYLVANIA

CITY           SKY/WX    TMP DP  RH WIND       PRES   REMARKS
SCRANTON       CLEAR     56  51  84 E3        30.01R
MOUNT POCONO   PTCLDY    52  49  89 NW3       30.02S
ALLENTOWN      CLEAR     58  52  80 CALM      30.00S
QUAKERTOWN*    PTCLDY    55  55 100 CALM      30.01S
READING        CLOUDY    61  54  77 CALM      30.00S
LANCASTER      CLEAR     59  53  80 W5        30.01S
COATESVILLE    PTCLDY    59  59 100 NW5       30.02S
POTTSTOWN      CLOUDY    61  54  77 CALM      30.02R
BLUE BELL      CLOUDY    63  61  94 CALM      29.99R
DOYLESTOWN     CLOUDY    61  56  83 CALM      29.99S
WILLOW GROVE   NOT AVBL
NORTH PHILA    CLOUDY    69  52  54 NW6       30.00S
PHILADELPHIA   CLOUDY    70  53  54 NW7       30.00R
$$


USA.gov is the U.S. government's official web portal to all federal, state and local government web resources and services.